This is the latest recevied weather packets stored in our database for station/object WD4DAN-13. If no packets are shown the sender has not sent any weather packets the latest 1 day(s).
| Time | Temp. | Humidity | Pressure | Rain* | Wind** | Luminosity | Snow |
|---|---|---|---|---|---|---|---|
| 1777992883 | 23.89° C | 73% | - | 0 mm | 0.89 m/s, 12° | - | - |
| 1777992582 | 23.33° C | 73% | - | 0 mm | 0.89 m/s, 254° | - | - |
| 1777992279 | 23.33° C | 74% | - | 0 mm | 1.34 m/s, 270° | - | - |
| 1777991976 | 23.89° C | 74% | - | 0 mm | 1.34 m/s, 270° | - | - |
| 1777991674 | 23.33° C | 75% | - | 0 mm | 1.34 m/s, 315° | - | - |
| 1777991371 | 22.78° C | 75% | - | 0 mm | 2.68 m/s, 322° | - | - |
| 1777991068 | 23.33° C | 73% | - | 0 mm | 1.34 m/s, 303° | - | - |
| 1777990765 | 22.78° C | 75% | - | 0 mm | 3.13 m/s, 235° | - | - |
| 1777990462 | 22.78° C | 75% | - | 0 mm | 1.79 m/s, 202° | - | - |
| 1777990159 | 22.78° C | 75% | - | 0 mm | 3.58 m/s, 252° | - | - |
| 1777989856 | 22.78° C | 76% | - | 0 mm | 2.24 m/s, 290° | - | - |
| 1777989553 | 22.78° C | 76% | - | 0 mm | 0.89 m/s, 199° | - | - |
| 1777989249 | 22.78° C | 74% | - | 0 mm | 1.79 m/s, 275° | - | - |
| 1777988945 | 22.22° C | 76% | - | 0 mm | 1.79 m/s, 213° | - | - |
| 1777988642 | 22.22° C | 77% | - | 0 mm | 2.24 m/s, 223° | - | - |
| 1777988339 | 21.67° C | 76% | - | 0 mm | 1.34 m/s, 297° | - | - |
| 1777988036 | 21.67° C | 77% | - | 0 mm | 2.24 m/s, 197° | - | - |
| 1777987731 | 21.67° C | 77% | - | 0 mm | 2.24 m/s, 168° | - | - |
| 1777987429 | 21.11° C | 78% | - | 0 mm | 2.24 m/s, 166° | - | - |
| 1777987126 | 20.56° C | 78% | - | 0 mm | 1.34 m/s, 221° | - | - |
| 1777986823 | 20.56° C | 79% | - | 0 mm | 0.89 m/s, 206° | - | - |
| 1777986521 | 20° C | 80% | - | 0 mm | 1.34 m/s, 247° | - | - |
| 1777986219 | 20° C | 80% | - | 0 mm | 2.24 m/s, 180° | - | - |
| 1777985916 | 20° C | 82% | - | 0 mm | 0.89 m/s, 186° | - | - |
| 1777985613 | 19.44° C | 82% | - | 0 mm | 0 m/s | - | - |
* Rain latest hour (hover to see other rain measurements)
** Current wind speed in m/s (hover to see current wind gust speed)